This is the latest recevied weather packets stored in our database for station/object W4SNA-3. If no packets are shown the sender has not sent any weather packets the latest 10 day(s).
| Time | Temp. | Humidity | Pressure | Rain* | Wind** | Luminosity | Snow |
|---|---|---|---|---|---|---|---|
| 1788220842 | 21.67° C | 90% | 1021.1 hPa | 6.35 mm | - | - | - |
| 1788220539 | 22.22° C | 88% | 1021.1 hPa | 6.35 mm | - | - | - |
| 1788220237 | 22.78° C | 86% | 1021.1 hPa | 6.1 mm | - | - | - |
| 1788219940 | 23.33° C | 83% | 1021.1 hPa | 5.59 mm | - | - | - |
| 1788219362 | 25° C | 78% | 1021.1 hPa | 0 mm | - | - | - |
| 1788219062 | 25° C | 74% | 1021.1 hPa | 0 mm | - | - | - |
| 1788218762 | 25° C | 71% | 1021.1 hPa | 0 mm | - | - | - |
| 1788218461 | 25° C | 71% | 1021.1 hPa | 0 mm | - | - | - |
| 1788218161 | 25.56° C | 72% | 1021.1 hPa | 0 mm | - | - | - |
| 1788217876 | 25.56° C | 70% | 1021.2 hPa | 0 mm | - | - | - |
| 1788217465 | 25.56° C | 70% | 1021.2 hPa | 0 mm | - | - | - |
| 1788217164 | 26.11° C | 71% | 1021.2 hPa | 0 mm | - | - | - |
| 1788216865 | 26.11° C | 70% | 1021.3 hPa | 0 mm | - | - | - |
| 1788216564 | 26.11° C | 69% | 1021.2 hPa | 0 mm | - | - | - |
| 1788216266 | 26.11° C | 69% | 1021.2 hPa | 0 mm | - | - | - |
| 1788215975 | 26.11° C | 69% | 1021.2 hPa | 0 mm | - | - | - |
| 1788215665 | 26.11° C | 67% | 1021.2 hPa | 0 mm | - | - | - |
| 1788215364 | 26.67° C | 67% | 1021.1 hPa | 0 mm | - | - | - |
| 1788215068 | 26.67° C | 71% | 1021.2 hPa | 0 mm | - | - | - |
| 1788214764 | 26.67° C | 69% | 1021.2 hPa | 0 mm | - | - | - |
| 1788214467 | 26.67° C | 70% | 1021.2 hPa | 0 mm | - | - | - |
| 1788214165 | 26.67° C | 68% | 1021.2 hPa | 0 mm | - | - | - |
| 1788213865 | 26.67° C | 68% | 1021.3 hPa | 0 mm | - | - | - |
| 1788213564 | 27.22° C | 69% | 1021.3 hPa | 0 mm | - | - | - |
| 1788213265 | 27.22° C | 67% | 1021.4 hPa | 0 mm | - | - | - |
* Rain latest hour (hover to see other rain measurements)
** Current wind speed in m/s (hover to see current wind gust speed)